Location: Arthez
(43.0833°N, 0.2500°W)
Time: 01:03:42
(UTC+00:00)

Tiangong - Pass Details

Date: 23 October 2021
Orbit: 379 x 384 km, 41.5° (Epoch: 06 December)

Event Time Altitude Azimuth Distance (km) Brightness Sun altitude
Rises 17:44:52 0° 257° (WSW) 2,271 7.5 -7.9°
Reaches altitude 10° 17:46:58 10° 254° (WSW) 1,416 5.6 -8.2°
Maximum altitude 17:50:07 61° 173° (S) 445 1.4 -8.8°
Enters shadow 17:52:50 13° 94° (E) 1,237 3.0 -9.3°
